Location: Couilly
(48.8847°N, 2.8568°E)
Time: 23:42:50
(UTC+00:00)

Daily predictions for brighter satellites

Satellite Brightness Start Highest point End
(mag) Time Altitude Azimuth Time Altitude Azimuth Time Altitude Azimuth
USA 267 3.7 16:15:08 10° ENE 16:21:31 54° SE 16:27:54 10° SW
SJ 16-02 2.9 16:20:27 10° NW 16:24:36 42° WSW 16:28:42 10° S
H-2A R/B 3.1 16:20:54 10° ESE 16:24:50 23° ENE 16:28:43 10° N
Cosmos 1763 Rocket 4.0 16:22:47 10° S 16:27:29 40° ESE 16:32:15 10° NE
USA 276 3.5 16:25:10 10° W 16:28:07 39° SSW 16:31:03 10° SE
USA 305 3.5 16:24:13 10° W 16:28:17 44° N 16:32:22 10° ENE
CZ-4B R/B 2.9 16:24:58 10° SSE 16:28:55 57° ENE 16:32:42 10° N
Cosmos 1656 3.8 16:24:39 10° NNW 16:30:13 83° WSW 16:35:49 10° SSE
Cosmos 1933 4.3 16:30:23 10° SSE 16:33:49 27° E 16:37:15 10° NNE
USA 229 DEB 3.9 16:27:39 10° NW 16:34:57 81° NE 16:42:45 10° SE
USA 229 3.9 16:27:44 10° NW 16:35:03 81° NE 16:42:50 10° SE
Cosmos 1464 Rocket 4.1 16:29:23 10° S 16:35:45 84° E 16:42:11 10° N
Cosmos 1937 Rocket 3.8 16:31:24 10° NNW 16:36:33 46° ENE 16:41:39 10° SE
Cosmos 1500 Rocket 3.6 16:35:10 10° N 16:39:35 60° ENE 16:43:56 10° SSE
Cosmos 1666 4.3 16:37:40 10° NNE 16:39:39 14° ENE 16:41:37 10° E
Spot 1 4.4 16:35:10 10° NNE 16:39:51 66° ESE 16:44:45 10° S
Nadezhda 4 Rocket 4.0 16:35:02 10° N 16:41:24 81° E 16:47:45 10° SSE
SL-24 R/B - RUBIN 2 4.0 16:37:29 10° NNW 16:41:54 41° NE 16:46:02 10° ESE
SeaSat 1 3.9 16:38:03 10° NNE 16:42:23 32° NW 16:46:43 10° WSW
Cosmos 2322 Rocket 3.8 16:39:42 10° N 16:42:54 15° NNE 16:45:58 10° ENE
ATLAS 2AS CENTAUR R/B 4.1 16:36:23 10° WNW 16:43:03 30° NNW 16:49:28 10° NE
Cosmos 990 Rocket 4.0 16:38:19 10° NNW 16:43:35 89° ENE 16:48:44 10° SSE
Cosmos 1697 Rocket 2.6 16:40:15 10° NNW 16:45:53 71° ENE 16:51:29 10° SE
FengYun 1-2 T 4.2 16:41:03 10° SSE 16:46:36 72° ENE 16:52:08 10° N
Cosmos 372 Rocket 4.5 16:42:49 10° N 16:47:43 38° ENE 16:52:36 10° SE
Cosmos 1271 Rocket 4.5 16:44:15 10° SW 16:47:52 34° WNW 16:51:33 10° N
Sich 1 3.5 16:45:17 10° N 16:49:16 36° ENE 16:53:15 10° SE
NOAA 6 4.0 16:44:57 10° SSE 16:50:00 62° ENE 16:55:04 10° N
Cosmos 1980 Rocket 2.5 16:44:40 10° NNW 16:50:06 44° NE 16:55:28 10° SE
Cosmos 1805 Rocket 3.7 16:47:06 10° N 16:51:19 47° ENE 16:55:30 10° SSE
Cosmos 2221 2.9 16:47:43 10° SSW 16:51:58 68° WNW 16:56:17 10° N
Cosmos 2369 3.8 16:46:26 10° NNW 16:52:06 55° NE 16:57:42 10° SE
USA 234 3.3 16:49:37 10° ESE 16:56:11 90° SSE 17:02:46 10° NW
CZ-4C R/B 3.1 16:49:35 10° NW 16:56:18 52° NE 17:04:15 10° ESE
Cosmos 1842 Rocket 3.9 16:52:24 10° SSW 16:56:51 71° WNW 17:01:21 10° N
Cosmos 1092 Rocket 4.0 16:50:58 10° N 16:57:18 65° ENE 17:03:35 10° SSE
Cosmos 2084 4.2 16:53:56 10° NW 16:58:09 57° SW 17:02:31 10° SSE
NOSS 3-1 (A) 4.4 16:51:05 10° NW 16:58:31 77° SW 17:07:15 10° SSE
Cosmos 1428 Rocket 4.5 16:53:57 10° N 17:00:01 60° ENE 17:06:06 10° SSE
USA 306 3.6 16:56:28 10° WNW 17:00:31 41° N 17:03:35 16° ENE
Cosmos 1812 4.0 16:58:00 10° SE 17:00:53 21° E 17:02:43 15° NE
SL-16 R/B 3.4 16:56:51 10° N 17:01:08 21° NE 17:04:15 14° E
ISS -3.8 16:58:34 10° WNW 17:01:59 80° NNE 17:04:59 13° ESE
Meteor 1-25 Rocket 4.2 16:57:25 10° N 17:03:02 81° ENE 17:08:38 10° SSE
NOSS 2-2 (D) 4.2 16:59:12 10° NW 17:04:08 66° NE 17:11:02 10° SE
NOSS 2-2 (E) 4.3 16:59:22 10° NW 17:04:29 78° NE 17:11:43 10° SE
deb Chang Zheng 4 4.3 17:01:47 10° SE 17:05:31 29° ENE 17:09:15 10° N
SMAP 3.0 17:01:19 10° SSE 17:05:58 84° ENE 17:10:39 10° NNW
Cosmos 2082 Rocket 2.9 17:01:22 10° S 17:06:27 35° ESE 17:10:43 14° NE
Cosmos 1939 Rocket 2.9 17:03:05 10° SSE 17:07:12 87° WSW 17:11:18 10° NNW
CORIOLIS 4.1 17:03:33 10° SSE 17:08:57 80° ENE 17:14:24 10° NNW
Cosmos 858 Rocket 4.4 17:03:47 10° NNW 17:09:06 75° ENE 17:14:23 10° SSE
Cosmos 2333 Rocket 4.1 17:09:27 10° N 17:11:14 11° NNE 17:12:25 11° NE
Cosmos 44 Rocket 4.1 17:06:50 10° NNW 17:11:18 32° NE 17:14:23 17° E
CZ-4B DEB 4.1 17:09:49 10° SSE 17:15:20 78° ENE 17:20:51 10° NNW
Cosmos 2278 3.9 17:10:35 10° NNW 17:16:08 49° NE 17:21:39 10° SE
Cosmos 1602 3.6 17:12:41 10° N 17:16:34 88° E 17:20:26 10° S
Cosmos 1627 Rocket 4.4 17:12:34 10° N 17:18:47 79° E 17:24:55 10° SSE
USA 307 3.6 17:15:17 10° WNW 17:19:21 41° N 17:21:38 22° ENE
AQUARIUS 4.2 17:15:24 10° SSE 17:19:53 85° WSW 17:24:25 10° NNW
Cosmos 540 Rocket 3.4 17:16:19 10° S 17:21:22 68° ESE 17:26:07 12° NNE
Cosmos 2034 Rocket 4.4 17:16:41 10° SSW 17:22:47 65° WNW 17:28:55 10° N
ARGOS 3.4 17:20:26 10° SE 17:25:32 44° ENE 17:30:39 10° N
COSMO-SKYMED 1 3.3 17:23:24 20° NE 17:25:43 33° E 17:29:38 10° SSE
Cosmos 2279 Rocket 4.2 17:20:38 10° SSE 17:26:29 46° E 17:32:22 10° NNE
COSMOS 2406 3.2 17:21:18 10° SSW 17:27:02 78° ESE 17:32:10 13° NNE
Cosmos 1833 Rocket 2.7 17:22:43 10° SSW 17:28:21 83° WNW 17:33:42 12° NNE
Meteor 2-21 4.4 17:23:40 10° N 17:29:48 84° E 17:35:51 10° S
Cosmos 1782 2.7 17:25:50 10° S 17:29:48 72° E 17:33:48 10° NNE
Cosmos 1814 Rocket 4.4 17:26:08 10° S 17:30:59 40° ESE 17:33:44 22° NE
ATLAS 5 CENTAUR R/B 2.7 17:23:15 10° NW 17:31:40 43° NNE 17:33:09 29° ENE
Cosmos 1633 Rocket 3.2 17:30:15 10° N 17:34:30 48° ENE 17:38:45 10° SSE
ATLAS CENTAUR R/B 3.8 17:32:38 10° NW 17:35:11 15° NNW 17:37:49 10° NNE
Cosmos 1818 3.8 17:30:09 10° NNW 17:35:28 48° NE 17:38:50 21° ESE
Cosmos 468 Rocket 4.5 17:30:57 10° SW 17:36:02 60° WNW 17:41:14 10° NNE
Cosmos 2219 Rocket 4.1 17:34:19 10° N 17:36:27 12° NNE 17:36:27 12° NNE
YAOGAN 1 4.0 17:39:35 21° NNE 17:39:35 21° NNE 17:41:39 10° N
ERBS 3.9 17:38:00 10° WNW 17:40:30 20° N 17:41:01 20° N
GEOS 3 Rocket 4.0 17:37:58 25° E 17:40:36 44° NE 17:45:30 10° NNW
CZ-2D R/B 3.3 17:36:51 10° S 17:40:41 77° WSW 17:44:31 10° NNW
USA 308 3.5 17:37:54 10° WNW 17:41:58 42° N 17:43:14 33° NE
Cosmos 1634 Rocket 4.0 17:37:03 10° S 17:43:23 90° SE 17:49:47 10° N
SJ-11-01 4.3 17:38:47 10° SSE 17:43:26 59° ENE 17:48:06 10° N
COSMOS 2455 2.8 17:38:17 10° SSW 17:44:17 73° ESE 17:48:14 23° NE
PAYLOAD B 4.4 17:39:33 10° SSE 17:45:10 79° WSW 17:50:49 10° NNW
CZ-2C R/B 2.6 17:40:35 13° NNE 17:45:12 53° E 17:50:15 10° S
Cosmos 1500 3.5 17:42:21 10° NNW 17:46:04 65° W 17:49:45 10° S
Cosmos 2026 Rocket 4.3 17:41:28 10° NNW 17:47:34 68° W 17:53:34 10° S
CZ-4B R/B 3.0 17:42:16 10° SSE 17:47:41 80° ENE 17:53:03 10° NNW
Cosmos 1151 Rocket 2.9 17:44:34 10° S 17:48:50 63° E 17:51:27 23° NNE
Lacrosse 5 rocket 1.4 17:46:10 10° NW 17:49:58 51° NNE 17:50:36 46° ENE
Okean O Rocket 1.5 17:47:19 10° SSE 17:51:44 68° ENE 17:56:11 10° N
CZ-4 R/B 3.7 17:59:40 12° N 17:59:40 12° N 17:59:57 10° N
Cosmos 2208 Rocket 4.2 17:54:56 10° S 18:00:07 50° ESE 18:01:40 39° ENE
Cosmos 1666 Rocket 3.6 17:55:53 10° NNW 18:00:22 78° W 18:04:46 10° S
CZ-4 R/B 4.3 17:56:56 10° SSE 18:01:03 79° ENE 18:05:13 10° N
Meteor 1-11 Rocket 3.9 17:57:01 10° N 18:02:24 45° ENE 18:05:45 22° SE
Meteor 1-10 Rocket 4.4 17:57:43 10° SSE 18:03:12 46° E 18:04:52 36° NE
Cosmos 1470 Rocket 3.6 17:59:11 10° N 18:03:36 57° ENE 18:08:00 10° SSE
Cosmos 2150 Rocket 4.1 17:58:39 10° NNW 18:03:43 50° ENE 18:04:48 43° E
H-2A R/B 2.6 17:58:48 10° S 18:03:54 59° W 18:08:54 10° NNW
USA 267 3.4 18:01:04 28° NE 18:04:41 66° NNW 18:11:08 10° WSW
Cosmos 1655 Rocket 4.0 17:59:18 10° N 18:05:40 60° ENE 18:11:56 10° SSE
Cosmos 1328 Rocket 3.4 18:01:57 10° S 18:06:21 68° E 18:07:31 47° NNE
Cosmos 2360 Rocket 3.3 18:03:16 10° NNW 18:07:10 27° NNE 18:07:10 27° NNE
Landsat 5 3.4 18:08:41 58° SE 18:08:41 58° SE 18:12:17 10° S
USA 305 3.2 18:04:35 10° WNW 18:08:42 47° NNE 18:08:46 47° NNE
SKYMED 2 3.5 18:12:00 33° N 18:13:56 84° WNW 18:18:17 10° SSW
Cosmos 2180 Rocket 4.4 18:08:50 10° S 18:15:10 79° E 18:21:28 10° NNE
Cosmos 1666 3.3 18:11:53 10° NNW 18:15:32 53° W 18:19:09 10° S
Cosmos 841 Rocket 4.0 18:10:30 10° SW 18:15:35 58° WNW 18:18:54 21° N
Feng Yun 1-1 Rocket 4.2 18:11:13 10° SSE 18:17:08 76° ENE 18:23:01 10° NNW
Meteor 2-8 Rocket 4.3 18:12:36 10° S 18:18:45 82° E 18:24:57 10° NNE
ATLAS CENTAUR R/B 2.6 18:11:59 10° WSW 18:19:51 58° NNW 18:20:43 48° NNE
Cosmos 1125 Rocket 3.4 18:16:37 10° NNW 18:21:51 65° ENE 18:22:14 63° E
Cosmos 2322 Rocket 2.4 18:22:43 10° NNW 18:27:49 51° NE 18:27:49 51° NE
Cosmos 1980 Rocket 3.7 18:28:54 10° NW 18:34:01 36° WSW 18:39:05 10° S
SL-08 RB Rocket 4.0 18:30:25 10° S 18:35:02 68° WSW 18:39:39 10° NNW
ATLAS 2AS CENTAUR R/B 4.0 18:30:08 10° NW 18:36:23 27° N 18:37:27 26° NNE
Cosmos 1812 4.3 18:32:52 10° SW 18:36:24 34° WNW 18:37:47 26° NNW
ISS -1.6 18:35:40 10° W 18:37:59 25° SW 18:37:59 25° SW
USA 306 4.0 18:36:42 10° WNW 18:39:35 39° NW 18:39:35 39° NW
CZ-4C R/B 3.6 18:38:04 10° NW 18:45:10 56° WSW 18:53:22 10° SSE
SL-16 R/B 2.0 18:40:22 10° NNW 18:46:05 88° ENE 18:46:11 86° ESE
Cosmos 2082 Rocket 3.1 18:45:00 10° SW 18:50:25 45° NW 18:52:35 31° N
Cosmos 44 Rocket 3.8 18:48:17 10° NW 18:53:06 54° WSW 18:53:09 54° SW
Cosmos 2333 Rocket 3.9 18:52:11 10° NNW 18:54:27 21° N 18:54:27 21° N
COSMO-SKYMED 1 4.3 19:00:37 26° NW 19:01:50 30° WNW 19:05:37 10° SW
GEOS 3 Rocket 4.4 19:19:06 47° WSW 19:19:06 47° WSW 19:23:40 10° NW
Cosmos 2219 Rocket 4.3 19:16:50 10° NNW 19:18:11 17° N 19:18:11 17° N
Lacrosse 5 rocket 4.2 19:25:20 10° WNW 19:26:12 15° WNW 19:26:12 15° WNW
COSMOS 2455 4.3 19:25:30 10° W 19:30:47 31° NW 19:31:23 30° NNW
BREEZE-M DEB (TANK) 4.4 19:27:14 10° SW 19:44:57 68° SSW 19:44:57 68° SSW
USA 267 4.2 19:48:24 40° NNW 19:48:24 40° NNW 19:53:18 10° WNW
Cosmos 2360 Rocket 4.2 19:46:58 10° NNW 19:48:56 22° NW 19:48:56 22° NW
Cosmos 2322 Rocket 4.4 20:07:14 10° NW 20:09:40 22° WNW 20:09:40 22° WNW
